FW0267 Weather Reports


time (UTC)temp
C
wind
direction
speed
KPH
gust
KPH
rain 1hr
cm
rain 24hr
cm
rain mn
cm
humidity
%
barometer
mb
20260505221548 26 165 1.6 16.1 0.00 0.00 0.00 37 1012.0
20260505221047 26 147 6.4 16.1 0.00 0.00 0.00 37 1012.0
20260505220544 26 229 3.2 19.3 0.00 0.00 0.00 38 1011.9
20260505220047 26 186 3.2 19.3 0.00 0.00 0.00 37 1011.9
20260505215542 26 174 4.8 14.5 0.00 0.00 0.00 36 1011.9
20260505215040 26 153 4.8 17.7 0.00 0.00 0.00 35 1011.9
20260505214552 26 215 1.6 24.1 0.00 0.00 0.00 34 1011.8
20260505214041 26 174 8.0 24.1 0.00 0.00 0.00 33 1011.8
20260505213536 26 230 3.2 16.1 0.00 0.00 0.00 33 1011.9
20260505213034 27 260 6.4 16.1 0.00 0.00 0.00 32 1012.0
20260505212533 27 198 3.2 11.3 0.00 0.00 0.00 32 1011.9
20260505212034 27 230 3.2 8.0 0.00 0.00 0.00 32 1011.9
20260505211540 27 195 3.2 6.4 0.00 0.00 0.00 32 1011.9
20260505211028 27 182 1.6 14.5 0.00 0.00 0.00 32 1012.0
20260505210530 27 167 3.2 14.5 0.00 0.00 0.00 30 1011.9
20260505210025 27 201 3.2 29.0 0.00 0.00 0.00 30 1011.9
20260505205524 27 90 3.2 29.0 0.00 0.00 0.00 30 1012.0
20260505205021 28 150 4.8 22.5 0.00 0.00 0.00 30 1011.9
20260505204522 28 171 4.8 16.1 0.00 0.00 0.00 30 1011.9
20260505204019 28 216 3.2 8.0 0.00 0.00 0.00 30 1011.8
20260505203517 28 206 3.2 8.0 0.00 0.00 0.00 30 1011.7
20260505203016 28 188 3.2 8.0 0.00 0.00 0.00 28 1011.8
20260505202515 28 245 3.2 9.7 0.00 0.00 0.00 28 1011.7
20260505202014 29 247 1.6 9.7 0.00 0.00 0.00 27 1011.8
20260505201512 29 146 4.8 11.3 0.00 0.00 0.00 27 1012.0
20260505201013 29 186 3.2 12.9 0.00 0.00 0.00 27 1011.9
20260505200509 29 251 3.2 14.5 0.00 0.00 0.00 26 1012.0
20260505200008 30 161 4.8 14.5 0.00 0.00 0.00 25 1012.0
20260505195506 30 192 3.2 12.9 0.00 0.00 0.00 26 1012.2
20260505195004 30 221 6.4 17.7 0.00 0.00 0.00 27 1012.2
20260505194504 30 61 4.8 29.0 0.00 0.00 0.00 27 1012.3
20260505194001 30 211 6.4 29.0 0.00 0.00 0.00 26 1012.3
20260505193600 30 234 4.8 24.1 0.00 0.00 0.00 26 1012.2
20260505193059 30 172 8.0 24.1 0.00 0.00 0.00 26 1012.3
20260505192559 30 243 4.8 14.5 0.00 0.00 0.00 26 1012.2
20260505192056 31 227 3.2 9.7 0.00 0.00 0.00 28 1012.4
20260505191556 30 157 3.2 11.3 0.00 0.00 0.00 28 1012.5
20260505191053 30 140 3.2 12.9 0.00 0.00 0.00 28 1012.5
20260505190551 30 145 1.6 16.1 0.00 0.00 0.00 29 1012.6
20260505190050 30 216 3.2 16.1 0.00 0.00 0.00 28 1012.8
20260505185548 30 201 4.8 16.1 0.00 0.00 0.00 27 1012.8
20260505185046 30 148 6.4 16.1 0.00 0.00 0.00 26 1012.9
20260505184550 30 223 3.2 14.5 0.00 0.00 0.00 27 1012.9
20260505184044 30 227 4.8 14.5 0.00 0.00 0.00 26 1012.9
20260505183541 30 223 4.8 14.5 0.00 0.00 0.00 27 1013.0
20260505183045 30 240 6.4 22.5 0.00 0.00 0.00 26 1013.2
20260505182541 30 211 6.4 22.5 0.00 0.00 0.00 27 1013.2
20260505182037 30 271 4.8 14.5 0.00 0.00 0.00 28 1013.2
20260505181536 30 207 3.2 9.7 0.00 0.00 0.00 28 1013.4
20260505181039 30 219 4.8 9.7 0.00 0.00 0.00 27 1013.4
20260505180536 30 191 3.2 8.0 0.00 0.00 0.00 29 1013.4
20260505180031 30 225 3.2 12.9 0.00 0.00 0.00 30 1013.4
20260505175530 30 223 4.8 12.9 0.00 0.00 0.00 31 1013.4
20260505175028 30 180 3.2 9.7 0.00 0.00 0.00 30 1013.5
20260505174527 30 196 3.2 14.5 0.00 0.00 0.00 29 1013.5
20260505174026 29 184 3.2 14.5 0.00 0.00 0.00 29 1013.5
20260505173524 30 221 3.2 14.5 0.00 0.00 0.00 30 1013.6
20260505173022 30 198 6.4 14.5 0.00 0.00 0.00 29 1013.6
20260505172521 30 255 3.2 16.1 0.00 0.00 0.00 32 1013.6
20260505172020 29 199 4.8 16.1 0.00 0.00 0.00 33 1013.6
20260505171518 30 33 3.2 14.5 0.00 0.00 0.00 33 1013.6
20260505171017 30 209 3.2 12.9 0.00 0.00 0.00 35 1013.8
20260505170516 30 230 3.2 8.0 0.00 0.00 0.00 35 1014.0
20260505170015 30 108 1.6 8.0 0.00 0.00 0.00 36 1013.9
20260505165514 29 190 1.6 8.0 0.00 0.00 0.00 37 1014.2
20260505165011 29 196 1.6 11.3 0.00 0.00 0.00 37 1014.1
20260505164510 28 143 1.6 11.3 0.00 0.00 0.00 36 1014.2
20260505164008 28 165 3.2 14.5 0.00 0.00 0.00 36 1014.3
20260505163507 28 169 3.2 16.1 0.00 0.00 0.00 38 1014.3
20260505163006 28 225 1.6 16.1 0.00 0.00 0.00 38 1014.4
20260505162508 28 213 3.2 8.0 0.00 0.00 0.00 38 1014.5
20260505162004 28 134 1.6 6.4 0.00 0.00 0.00 37 1014.5
20260505161501 28 209 1.6 6.4 0.00 0.00 0.00 41 1014.6
20260505161100 28 67 1.6 8.0 0.00 0.00 0.00 40 1014.8
20260505160558 27 219 3.2 9.7 0.00 0.00 0.00 41 1014.8
20260505153052 26 237 1.6 8.0 0.00 0.00 0.00 45 1015.2
20260505152549 26 205 1.6 11.3 0.00 0.00 0.00 45 1015.2
20260505152044 26 212 1.6 6.4 0.00 0.00 0.00 44 1015.2
20260505151546 26 209 3.2 8.0 0.00 0.00 0.00 46 1015.2
20260505151042 25 221 1.6 12.9 0.00 0.00 0.00 46 1015.2
20260505150541 25 222 1.6 12.9 0.00 0.00 0.00 45 1015.2
20260505140525 22 194 3.2 12.9 0.00 0.00 0.00 52 1015.1
20260505125002 18 241 1.6 6.4 0.00 0.00 0.00 40 1015.2
20260505124603 17 242 1.6 6.4 0.00 0.00 0.00 40 1015.2
20260505124100 17 205 1.6 6.4 0.00 0.00 0.00 35 1015.2
20260505123556 17 198 1.6 4.8 0.00 0.00 0.00 33 1015.3
20260505123057 17 198 1.6 9.7 0.00 0.00 0.00 27 1015.3
20260505122553 16 158 1.6 9.7 0.00 0.00 0.00 25 1015.2
20260505122052 16 213 3.2 8.0 0.00 0.00 0.00 20 1015.2
20260505121551 16 234 1.6 8.0 0.00 0.00 0.00 15 1015.2
20260505121050 16 235 3.2 8.0 0.00 0.00 0.00 10 1015.0
20260505120548 15 243 3.2 11.3 0.00 0.00 0.00 4 1015.0
20260505120050 15 215 3.2 11.3 0.00 0.00 0.00 1 1014.9
20260505115545 15 194 3.2 6.4 0.00 0.00 0.00 1 1014.9
20260505115045 15 196 1.6 6.4 0.00 0.00 0.00 1 1014.9
20260505114542 15 109 1.6 6.4 0.00 0.00 0.00 1 1014.9
20260505114040 14 169 1.6 4.8 0.00 0.00 0.00 1 1014.9
20260505113540 14 142 1.6 4.8 0.00 0.00 0.00 1 1014.9
20260505113042 14 142 0.0 3.2 0.00 0.00 0.00 1 1014.8
20260505112535 14 142 0.0 3.2 0.00 0.00 0.00 1 1014.9
20260505112035 13 142 0.0 3.2 0.00 0.00 0.00 1 1014.8
20260505111542 13 142 0.0 3.2 0.00 0.00 0.00 1 1014.8
20260505111032 13 142 0.0 3.2 0.00 0.00 0.00 1 1014.7
20260505110531 13 142 0.0 8.0 0.00 0.00 0.00 1 1014.6
20260505102019 14 136 0.0 0.0 0.00 0.00 0.00 15 1014.2
20260505101529 14 136 0.0 0.0 0.00 0.00 0.00 15 1014.3
20260505101018 14 136 0.0 0.0 0.00 0.00 0.00 17 1014.3
20260505100517 15 136 0.0 0.0 0.00 0.00 0.00 18 1014.2
20260505100017 15 136 0.0 0.0 0.00 0.00 0.00 20 1014.3
20260505095516 15 136 0.0 0.0 0.00 0.00 0.00 21 1014.2
20260505095014 15 136 0.0 0.0 0.00 0.00 0.00 22 1014.2
20260505094514 15 136 0.0 0.0 0.00 0.00 0.00 23 1014.2
20260505094013 15 136 0.0 0.0 0.00 0.00 0.00 24 1014.1
20260505093513 15 136 0.0 0.0 0.00 0.00 0.00 26 1014.1
20260505093012 15 136 0.0 0.0 0.00 0.00 0.00 26 1014.1
20260505092512 15 136 0.0 0.0 0.00 0.00 0.00 27 1014.0
20260505092011 15 136 0.0 1.6 0.00 0.00 0.00 28 1014.0
20260505091510 15 136 0.0 3.2 0.00 0.00 0.00 29 1014.0
20260505091010 15 136 0.0 4.8 0.00 0.00 0.00 30 1014.1
20260505090508 15 136 0.0 4.8 0.00 0.00 0.00 31 1014.0
20260505090011 15 179 0.0 4.8 0.00 0.00 0.00 31 1014.1
20260505085509 15 179 0.0 4.8 0.00 0.00 0.00 32 1014.0
20260505085007 16 179 1.6 4.8 0.00 0.00 0.00 33 1014.1
20260505084523 16 173 0.0 0.0 0.00 0.00 0.00 34 1014.0
20260505084006 16 173 0.0 0.0 0.00 0.00 0.00 34 1014.0
20260505083505 16 173 0.0 0.0 0.00 0.00 0.00 35 1014.0
20260505083005 16 173 0.0 0.0 0.00 0.00 0.00 35 1014.0
20260505082504 16 173 0.0 0.0 0.00 0.00 0.00 36 1014.1
20260505082004 16 173 0.0 1.6 0.00 0.00 0.00 37 1014.0
20260505081503 16 173 0.0 4.8 0.00 0.00 0.00 37 1014.0
20260505081003 16 173 1.6 4.8 0.00 0.00 0.00 38 1014.0
20260505080505 16 197 0.0 6.4 0.00 0.00 0.00 39 1014.0
20260505080004 16 197 3.2 6.4 0.00 0.00 0.00 39 1013.9
20260505075501 16 203 1.6 4.8 0.00 0.00 0.00 40 1014.0
20260505075100 16 203 1.6 4.8 0.00 0.00 0.00 40 1014.0
20260505074559 16 203 1.6 4.8 0.00 0.00 0.00 41 1013.8
20260505074059 16 214 0.0 4.8 0.00 0.00 0.00 42 1013.8
20260505073558 16 215 1.6 4.8 0.00 0.00 0.00 43 1013.8
20260505073102 16 215 1.6 4.8 0.00 0.00 0.00 44 1013.5
20260505072600 16 169 0.0 0.0 0.00 0.00 0.00 45 1013.5
20260505072058 16 158 0.0 6.4 0.00 0.00 0.00 46 1013.5
20260505071600 16 158 0.0 9.7 0.00 0.00 0.00 46 1013.5
20260505071054 16 169 1.6 9.7 0.00 0.00 0.00 47 1013.4
20260505070554 16 190 1.6 8.0 0.00 0.00 0.00 48 1013.3
20260505070103 16 188 1.6 6.4 0.00 0.00 0.00 49 1013.2
20260505065554 16 157 1.6 4.8 0.00 0.00 0.00 50 1013.3
20260505065052 16 150 0.0 6.4 0.00 0.00 0.00 50 1013.3
20260505064557 16 149 1.6 6.4 0.00 0.00 0.00 51 1013.3
20260505064051 16 122 0.0 4.8 0.00 0.00 0.00 52 1013.3
20260505063551 16 167 3.2 4.8 0.00 0.00 0.00 53 1013.2
20260505063051 16 164 0.0 4.8 0.00 0.00 0.00 54 1013.2
20260505062550 16 177 1.6 4.8 0.00 0.00 0.00 55 1013.3
20260505062052 16 155 1.6 4.8 0.00 0.00 0.00 55 1013.2
20260505061611 16 150 0.0 4.8 0.00 0.00 0.00 55 1013.3
20260505061049 16 162 1.6 4.8 0.00 0.00 0.00 55 1013.3
20260505060548 16 163 0.0 6.4 0.00 0.00 0.00 55 1013.3
20260505060053 16 162 0.0 6.4 0.00 0.00 0.00 56 1013.3
20260505055550 16 196 1.6 9.7 0.00 0.00 0.00 56 1013.4
20260505055046 16 122 1.6 11.3 0.00 0.00 0.00 55 1013.4
20260505054549 16 155 1.6 11.3 0.00 0.00 0.00 55 1013.4
20260505054045 17 355 1.6 6.4 0.00 0.00 0.00 55 1013.4
20260505053545 17 201 1.6 6.4 0.00 0.00 0.00 55 1013.4
20260505053045 17 135 1.6 4.8 0.00 0.00 0.00 55 1013.4
20260505052549 17 121 1.6 4.8 0.00 0.00 0.00 55 1013.4
20260505052045 17 120 1.6 11.3 0.00 0.00 0.00 55 1013.5
20260505051545 17 175 3.2 11.3 0.00 0.00 0.00 55 1013.5
20260505051045 17 169 3.2 11.3 0.00 0.00 0.00 55 1013.4
20260505050544 17 188 1.6 6.4 0.00 0.00 0.00 54 1013.4
20260505041539 17 193 1.6 8.0 0.00 0.00 0.00 54 1013.1
20260505041041 17 167 3.2 12.9 0.00 0.00 0.00 54 1013.1
20260505040538 17 198 1.6 12.9 0.00 0.00 0.00 54 1013.1
20260505040051 17 161 0.0 4.8 0.00 0.00 0.00 55 1013.0
20260505035535 17 128 0.0 3.2 0.00 0.00 0.00 55 1013.0
20260505035039 16 146 0.0 0.0 0.00 0.00 0.00 55 1013.1
20260505034541 16 146 0.0 0.0 0.00 0.00 0.00 55 1012.9
20260505034035 16 146 0.0 1.6 0.00 0.00 0.00 55 1012.9
20260505033535 16 146 0.0 4.8 0.00 0.00 0.00 55 1013.0
20260505033034 16 146 0.0 4.8 0.00 0.00 0.00 55 1013.0
20260505032535 16 177 0.0 0.0 0.00 0.00 0.00 55 1013.0
20260505032036 17 177 0.0 3.2 0.00 0.00 0.00 55 1013.0
20260505031545 17 177 0.0 3.2 0.00 0.00 0.00 55 1013.0
20260505031034 17 180 0.0 0.0 0.00 0.00 0.00 55 1013.0
20260505030534 17 180 0.0 1.6 0.00 0.00 0.00 55 1013.0
20260505030034 17 180 0.0 1.6 0.00 0.00 0.00 55 1013.0
20260505025534 17 180 0.0 1.6 0.00 0.00 0.00 55 1013.0
20260505025038 17 180 0.0 1.6 0.00 0.00 0.00 55 1013.1
20260505024534 17 180 0.0 0.0 0.00 0.00 0.00 55 1013.2
20260505024034 17 180 0.0 0.0 0.00 0.00 0.00 54 1013.1
20260505023533 17 180 0.0 0.0 0.00 0.00 0.00 55 1013.0
20260505023033 17 180 0.0 0.0 0.00 0.00 0.00 55 1013.0
20260505022534 17 180 0.0 1.6 0.00 0.00 0.00 54 1013.0
20260505022033 18 180 0.0 1.6 0.00 0.00 0.00 54 1013.0
20260505021535 18 180 0.0 0.0 0.00 0.00 0.00 54 1012.9
20260505021033 18 180 0.0 0.0 0.00 0.00 0.00 53 1013.0
20260505020533 18 180 0.0 0.0 0.00 0.00 0.00 53 1012.9
20260505020039 18 180 0.0 0.0 0.00 0.00 0.00 53 1012.9
20260505015533 18 180 0.0 0.0 0.00 0.00 0.00 53 1012.9
20260505015032 18 180 0.0 0.0 0.00 0.00 0.00 52 1012.8
20260505014534 18 180 0.0 0.0 0.00 0.00 0.00 52 1012.9
20260505014034 18 180 0.0 0.0 0.00 0.00 0.00 52 1012.8
20260505013531 19 180 0.0 0.0 0.00 0.00 0.00 51 1012.7
20260505013032 19 180 0.0 0.0 0.00 0.00 0.00 50 1012.7
20260505012532 19 180 0.0 0.0 0.00 0.00 0.00 49 1012.7
20260505012035 19 180 0.0 0.0 0.00 0.00 0.00 50 1012.5
20260505011531 20 180 0.0 0.0 0.00 0.00 0.00 49 1012.5
20260505011032 20 180 0.0 0.0 0.00 0.00 0.00 49 1012.4
20260505010531 20 180 0.0 0.0 0.00 0.00 0.00 49 1012.5
20260505010033 20 180 0.0 0.0 0.00 0.00 0.00 48 1012.4
20260505005532 20 180 0.0 0.0 0.00 0.00 0.00 47 1012.4
20260505005030 20 180 0.0 0.0 0.00 0.00 0.00 48 1012.2
20260505004531 20 180 0.0 0.0 0.00 0.00 0.00 47 1012.2
20260505004030 21 180 0.0 0.0 0.00 0.00 0.00 47 1012.4
20260505003530 21 180 0.0 0.0 0.00 0.00 0.00 47 1012.3
20260505003030 21 180 0.0 0.0 0.00 0.00 0.00 46 1012.3
20260505002529 21 180 0.0 0.0 0.00 0.00 0.00 45 1012.3
20260505002029 21 180 0.0 0.0 0.00 0.00 0.00 44 1012.3
20260505001530 21 180 0.0 0.0 0.00 0.00 0.00 44 1012.1
20260505001029 21 180 0.0 0.0 0.00 0.00 0.00 42 1012.3
20260505000528 21 180 0.0 0.0 0.00 0.00 0.00 41 1012.4
20260505000042 22 180 0.0 0.0 0.00 0.00 0.00 41 1012.5
20260504235529 22 180 0.0 0.0 0.00 0.00 0.00 40 1012.5
20260504235028 22 180 0.0 0.0 0.00 0.00 0.00 40 1012.4
20260504234528 22 180 0.0 0.0 0.00 0.00 0.00 39 1012.2
20260504234027 22 180 0.0 1.6 0.00 0.00 0.00 39 1012.3
20260504233527 22 180 0.0 1.6 0.00 0.00 0.00 38 1012.2
20260504233027 22 180 0.0 3.2 0.00 0.00 0.00 38 1012.2
20260504232528 22 180 0.0 3.2 0.00 0.00 0.00 38 1012.1
20260504232027 22 180 0.0 1.6 0.00 0.00 0.00 37 1012.1
20260504231527 22 180 0.0 3.2 0.00 0.00 0.00 37 1011.9
20260504231027 23 180 0.0 3.2 0.00 0.00 0.00 36 1012.0
20260504230527 23 180 1.6 6.4 0.00 0.00 0.00 36 1011.9
20260504230027 23 57 1.6 11.3 0.00 0.00 0.00 36 1011.9
20260504225531 23 207 1.6 14.5 0.00 0.00 0.00 35 1012.0
20260504225025 23 155 1.6 14.5 0.00 0.00 0.00 34 1012.0
20260504224525 23 194 1.6 4.8 0.00 0.00 0.00 35 1012.1
20260504224025 23 231 1.6 6.4 0.00 0.00 0.00 35 1012.2
20260504223525 23 111 1.6 6.4 0.00 0.00 0.00 34 1012.1
20260504223026 23 192 1.6 6.4 0.00 0.00 0.00 34 1012.1
20260504222525 23 214 1.6 11.3 0.00 0.00 0.00 34 1012.2
20260504222025 23 237 3.2 11.3 0.00 0.00 0.00 34 1012.1